RH
66 75 80 80 84 87 86 87 85 86 87 90 91 90 88 84 86 90 85 87 80 78 85 84 87 83 79 78 75 73 72 77 92 78 75 73 69 64 62 67 72 73 72
52 74 78 81 86 84 84 85 86 86 87 90 89 88 87 84 86 86 90 94 93 91 92 93 92 87 85 85 84 85 87 86 84 82 76 74 76 77 76 73 75 78 82
42 62 76 80 84 81 80 83 86 87 89 90 88 87 87 85 93 90 87 89 96 97 95 94 92 93 94 92 91 89 87 87 89 90 92 85 80 76 74 73 77 74 76
38 47 75 78 80 82 79 83 87 88 89 89 86 84 86 87 89 85 88 95 89 89 88 88 88 89 89 91 94 93 90 88 84 83 80 79 76 74 77 80 74 77 82
39 44 59 68 76 77 72 81 84 87 86 87 90 92 94 97 97 87 89 91 90 89 86 85 86 89 86 86 88 87 84 82 82 81 84 82 96 94 98 94 98 95 92
41 40 42 53 65 68 63 68 79 80 82 86 88 88 87 90 97 96 86 88 90 82 82 86 93 90 88 99 100 99 97 94 96 99 99 100 100 100 100 100 99 98 94
44 41 40 39 50 54 56 58 67 72 76 78 81 87 88 87 87 83 86 90 96 86 87 91 96 96 94 96 100 99 98 92 96 96 99 99 100 100 95 93 95 99 98
46 43 39 38 38 40 50 50 53 61 66 69 71 73 79 76 78 84 78 79 98 96 86 88 98 98 95 96 99 98 93 96 95 93 93 96 95 89 65 61 86 92 73
47 44 40 39 39 39 42 44 46 51 55 58 61 65 73 68 68 71 70 65 84 93 86 90 93 80 82 90 94 92 92 90 95 92 89 84 83 77 47 45 61 85 89
44 41 40 39 41 41 39 39 39 44 49 53 54 56 58 58 56 63 63 66 60 81 87 86 92 77 63 45 87 88 89 90 87 86 92 82 75 74 65 56 65 92 92
44 43 43 42 41 41 41 42 41 44 49 51 54 48 53 54 52 60 62 60 60 65 86 90 88 78 66 45 56 71 75 86 75 90 75 78 78 71 59 56 65 83 92
49 50 50 49 48 46 47 48 48 49 53 53 55 52 47 45 47 54 59 59 55 62 70 85 85 75 65 43 51 45 51 68 66 69 72 74 74 65 52 55 66 77 94
48 49 49 52 56 56 56 57 58 56 58 58 59 59 51 44 45 48 53 56 53 64 57 67 71 71 69 50 49 42 52 58 60 62 67 75 77 64 63 60 65 75 80
41 48 57 56 57 61 62 63 63 63 61 61 61 60 55 50 48 48 49 54 56 63 69 68 76 75 75 56 62 66 56 55 54 56 65 70 73 80 79 69 66 84 93
45 45 49 53 54 57 63 64 64 62 60 61 58 56 57 59 50 49 50 51 52 53 70 81 82 84 76 73 68 60 59 60 57 55 59 65 76 79 88 87 85 89 88
57 55 56 59 62 66 68 67 66 69 68 64 63 60 58 57 57 56 55 53 55 56 86 86 83 81 80 73 65 64 66 64 61 65 65 64 69 81 89 92 94 90 90
76 76 76 76 76 76 74 76 80 68 68 67 67 67 69 69 69 69 68 63 61 64 93 93 91 87 82 78 70 64 63 62 63 66 63 64 72 82 91 93 91 90 87
67 68 76 79 81 82 83 84 85 88 89 85 74 78 78 77 75 74 74 80 83 80 82 92 93 87 84 82 73 65 62 64 66 67 71 67 74 78 92 90 90 89 87
58 61 69 73 76 78 79 82 84 86 88 89 85 76 72 77 80 81 84 100 99 97 98 96 95 91 88 86 78 72 66 66 67 69 74 67 75 78 87 90 89 92 92
60 64 66 73 74 72 72 76 78 82 87 89 93 94 95 95 94 90 86 98 100 100 100 99 99 99 98 94 89 83 79 74 74 73 76 74 79 79 81 92 92 93 87
62 63 66 73 72 70 73 76 77 82 86 90 91 87 92 94 99 97 91 87 86 93 99 100 100 100 99 98 96 92 88 90 83 77 78 79 80 86 86 89 91 90 91
57 58 62 65 67 71 72 76 81 86 86 87 87 88 94 93 91 94 98 98 95 92 93 97 100 100 99 99 99 99 98 99 98 85 81 82 81 84 86 92 93 90 88
59 65 66 67 70 74 78 78 82 83 85 87 89 92 97 99 99 99 98 97 95 95 98 100 100 100 100 100 100 100 99 98 97 95 89 82 83 87 88 94 92 92 93
68 66 68 71 74 77 79 82 82 82 86 88 92 96 100 100 100 100 100 100 100 99 100 100 100 100 100 100 100 99 99 99 99 98 93 94 87 89 90 94 92 92 90
66 68 72 78 82 84 85 86 90 90 90 91 93 97 98 99 100 100 100 100 100 100 99 100 100 100 100 100 99 99 98 98 98 98 98 91 88 95 89 91 92 93 92
75 77 81 85 86 85 91 94 94 93 94 96 95 93 95 100 100 100 100 100 100 99 99 99 99 99 99 99 98 99 99 99 98 97 94 94 96 90 90 93 91 94 92
Wind_Speed
11 10 11 10 9 8 10 11 12 13 14 14 15 15 15 14 14 13 11 11 11 12 11 11 14 12 13 14 14 13 11 8 4 8 9 8 8 11 10 8 8 9 11
12 11 11 10 8 9 8 9 10 11 12 13 13 13 13 13 13 12 13 13 12 13 13 14 13 11 8 9 9 9 9 9 6 4 8 10 8 5 14 15 14 12 12
13 13 13 12 9 8 6 7 8 9 10 11 12 12 11 12 11 11 13 13 12 12 12 13 13 12 12 12 11 9 8 7 5 4 6 10 13 15 16 14 12 14 16
15 15 16 14 11 9 8 8 7 7 9 10 9 9 9 10 10 12 13 11 9 9 9 9 9 8 10 12 11 11 11 11 10 9 9 11 10 10 9 10 13 15 15
17 17 19 16 13 11 10 10 10 10 11 9 10 9 8 8 8 11 11 10 9 8 7 7 7 7 8 10 9 8 8 9 10 10 9 6 3 6 7 9 6 11 10
19 21 19 17 16 14 13 12 12 12 11 10 11 10 10 8 10 10 9 9 9 9 9 7 6 8 9 6 7 6 7 7 6 4 4 3 3 5 6 8 9 5 2
21 22 20 19 18 17 15 14 14 14 13 13 13 12 13 12 11 11 9 8 8 8 7 6 4 6 6 5 3 4 5 5 4 2 2 2 1 5 8 9 8 7 6
21 22 21 20 20 18 17 17 16 16 16 15 15 14 14 14 12 13 11 10 8 8 8 7 6 6 6 2 3 4 3 2 4 5 4 2 2 5 6 7 7 8 10
23 24 23 21 21 20 20 20 18 18 18 18 18 17 17 17 15 14 14 11 10 9 9 9 7 7 7 5 5 4 3 2 4 4 4 4 3 4 6 4 3 4 1
25 25 23 22 23 23 23 22 21 20 21 20 21 20 19 20 17 16 16 14 13 12 11 12 11 9 8 5 6 5 6 5 3 3 4 3 3 3 5 5 3 3 2
25 24 24 24 26 26 25 24 24 22 22 23 23 23 22 20 20 17 17 17 16 14 13 12 13 11 9 6 5 7 7 7 6 6 5 5 5 5 5 4 3 1 2
22 23 25 26 26 27 26 26 25 24 24 26 25 26 25 22 20 19 19 19 17 16 16 14 15 14 11 8 7 6 5 6 6 7 8 8 6 5 4 3 4 4 5
24 26 25 25 26 26 26 26 26 25 25 27 27 26 29 25 20 20 20 20 19 19 17 16 14 15 12 10 8 7 7 8 8 9 10 9 7 5 4 3 3 4 4
22 24 24 22 24 25 25 25 26 26 26 25 24 25 29 28 24 21 20 21 21 20 18 15 15 15 15 14 12 11 10 9 9 10 10 8 6 5 4 3 2 2 4
20 19 19 19 20 21 23 23 25 29 29 26 28 28 26 26 28 23 21 23 23 22 19 17 18 18 17 17 16 15 14 12 12 10 10 9 8 7 6 3 3 2 2
18 18 16 15 16 17 19 22 20 22 23 26 27 28 30 30 27 25 20 20 23 20 17 21 23 23 23 22 21 20 17 16 15 14 12 11 11 10 9 7 5 3 3
14 15 15 15 16 16 16 15 18 19 17 18 20 22 24 28 29 28 26 25 23 21 22 24 25 25 26 26 24 23 23 21 18 17 15 14 12 11 9 9 7 5 4
12 12 11 12 12 13 14 16 16 16 18 23 19 18 19 22 22 22 20 20 21 24 27 25 26 28 28 26 26 25 25 22 22 21 19 17 16 14 13 11 9 7 6
12 11 11 11 10 10 12 14 16 16 18 21 23 22 19 19 20 20 18 20 20 20 23 25 26 28 27 27 26 25 25 26 25 23 22 19 18 16 15 13 10 9 8
12 10 10 10 11 11 11 12 14 15 17 19 18 19 20 18 21 20 18 22 23 23 23 25 27 27 28 28 27 25 24 25 25 24 23 21 19 17 17 15 12 9 7
12 12 11 12 13 13 13 15 15 16 17 19 20 20 16 18 18 18 21 22 24 25 25 27 28 28 27 27 26 25 26 26 27 26 25 23 20 20 17 14 12 11 9
15 16 16 17 17 17 17 17 16 17 19 19 21 21 17 17 20 21 20 21 23 26 27 27 26 27 27 27 27 27 27 27 26 26 24 23 21 20 17 17 14 12 11
21 20 21 23 22 21 20 20 20 21 21 22 21 21 20 19 20 21 23 23 23 24 24 24 25 25 25 25 25 26 27 27 26 25 24 23 22 21 19 19 17 14 12
24 23 26 28 26 24 23 24 24 24 22 22 22 21 19 19 20 22 23 23 23 23 22 22 22 21 22 23 23 23 23 22 21 21 22 22 23 21 20 20 17 15 12
24 25 27 26 24 23 22 22 23 23 22 20 17 17 18 19 21 23 23 22 23 22 21 21 20 19 19 19 19 19 18 19 18 18 19 20 21 22 21 20 17 15 13
25 24 24 23 24 24 21 20 20 20 21 19 18 19 20 22 23 23 23 22 21 21 19 17 17 16 15 15 15 14 15 17 18 17 18 20 20 21 21 20 16 15 13
Wind_Direction
270 275 279 290 295 301 309 320 329 325 327 326 326 330 330 328 331 330 332 333 338 339 353 355 12 349 322 318 308 293 289 288 238 292 295 309 315 337 338 354 354 341 329
265 270 274 278 276 287 308 328 326 325 320 322 321 321 321 323 328 331 335 325 320 320 327 337 343 346 357 357 18 27 31 35 3 327 324 340 346 346 346 338 337 340 343
257 263 265 265 266 291 316 316 319 319 316 315 317 317 319 321 326 326 328 318 317 323 327 329 333 338 341 344 341 336 339 336 340 346 325 313 324 333 333 332 341 337 337
255 256 258 259 263 273 284 291 301 306 303 304 311 315 316 322 319 320 321 320 315 319 324 326 326 327 328 333 339 338 334 328 328 318 308 305 316 319 323 343 330 329 335
251 251 254 259 261 266 271 273 279 275 283 285 294 299 309 320 306 332 328 318 315 319 319 324 325 319 319 322 320 321 318 317 315 311 308 311 8 354 357 337 318 330 333
247 250 254 257 258 262 268 270 274 279 281 280 288 292 293 304 302 315 324 322 317 314 316 320 324 318 328 345 333 350 2 4 342 338 354 13 29 5 342 343 342 4 338
247 250 254 258 259 262 265 266 268 274 277 278 282 283 285 291 294 308 311 301 299 306 306 316 323 332 338 340 295 340 353 5 358 10 107 68 88 358 344 339 340 338 311
246 251 255 257 260 264 264 265 267 269 272 275 277 277 278 281 283 284 296 295 282 288 292 305 314 312 320 296 275 290 316 24 54 52 65 64 358 333 339 320 314 307 308
251 255 260 262 264 266 264 266 268 267 268 269 274 275 273 278 278 276 282 286 271 264 276 287 284 286 274 241 245 244 254 318 349 6 9 31 17 356 352 352 351 8 338
261 267 272 272 267 266 265 265 268 267 269 271 273 272 274 277 277 273 273 274 276 264 258 265 265 283 298 266 236 225 236 230 237 260 256 250 283 303 330 352 351 76 354
269 273 273 270 265 265 266 264 265 266 266 267 270 274 274 274 277 272 268 267 270 267 261 261 254 271 282 265 241 232 229 223 231 221 216 220 249 279 298 305 301 237 203
279 277 277 276 270 265 265 267 264 264 263 265 269 274 276 277 275 270 266 265 266 260 259 255 254 258 265 246 241 236 220 217 219 217 227 233 245 263 269 266 268 275 232
285 277 277 279 274 267 262 266 266 263 261 265 269 272 279 283 278 268 265 260 263 257 259 253 249 248 254 244 230 229 224 230 230 230 227 228 248 269 269 275 257 273 255
288 282 270 270 275 272 266 266 266 266 264 262 263 267 275 282 281 270 263 253 255 254 254 248 241 243 246 247 242 233 236 235 236 233 230 235 238 235 259 273 213 209 204
288 286 280 274 274 277 273 271 269 268 266 264 269 273 273 275 283 285 272 258 254 254 248 242 237 235 236 237 238 239 236 234 231 234 232 232 232 232 229 240 206 192 209
289 291 290 284 282 279 277 279 278 278 276 275 275 273 276 278 282 280 274 265 259 255 230 233 237 240 241 245 243 243 238 237 238 235 236 234 230 228 225 220 223 234 246
281 290 296 296 294 292 290 286 287 294 288 283 281 281 280 281 283 280 273 263 255 243 224 229 233 238 243 247 249 246 243 240 239 235 237 235 230 224 213 215 210 225 229
283 284 284 289 296 301 301 301 298 295 300 306 302 298 290 286 286 284 277 264 244 230 234 232 233 238 244 244 248 247 244 239 228 230 231 230 226 220 211 214 216 233 241
284 289 295 294 294 296 298 301 302 304 304 304 309 308 307 300 290 284 275 241 236 238 239 241 242 245 246 247 252 248 242 236 231 227 226 224 220 216 215 215 219 224 244
288 291 291 290 293 296 298 296 294 297 300 302 301 301 311 310 298 290 272 249 242 242 241 241 246 247 245 246 248 246 239 233 230 225 227 223 217 218 214 209 215 216 228
290 293 289 284 284 289 292 291 293 294 293 297 295 301 298 295 290 288 283 271 265 259 253 249 249 247 247 246 244 244 237 234 229 227 222 221 217 213 213 207 206 215 221
282 282 282 280 283 283 284 284 285 284 289 292 297 302 297 287 286 284 279 275 277 279 274 266 257 254 253 249 245 238 233 228 227 225 221 219 214 212 209 205 204 211 219
283 285 284 283 281 282 281 282 282 286 289 291 292 295 296 288 283 280 282 284 283 281 279 274 267 258 260 256 251 246 237 235 230 222 219 214 211 209 207 201 201 205 212
286 283 283 284 284 282 282 284 287 287 286 286 289 288 282 281 283 285 287 289 288 287 283 277 270 263 259 257 254 248 245 240 232 219 216 214 211 206 206 202 203 206 211
284 285 283 280 279 281 281 278 273 274 277 279 285 287 286 283 284 289 295 296 292 288 281 276 268 262 258 253 250 243 237 234 220 209 206 207 208 205 202 197 198 201 207
289 285 282 283 283 283 275 269 270 274 276 276 280 287 290 288 286 293 297 298 295 289 282 274 267 259 252 245 238 229 221 213 202 198 198 201 199 199 195 193 194 199 205